Location: Unspecified
(51.0950°N, 12.9690°E)
Time: 04:25:46
(UTC+00:00)

CUBEBUG 2 - Pass Details

Date: 26 April 2024
Orbit: 570 x 668 km, 97.8° (Epoch: 24 May)

Event Time Altitude Azimuth Distance (km) Brightness Sun altitude
Rises 02:39:55 0° 3° (N) 2,796 ? -10.3°
Reaches altitude 10° 02:42:26 10° 347° (NNW) 1,900 ? -10.0°
Maximum altitude 02:45:32 21° 298° (WNW) 1,329 ? -9.6°
Enters shadow 02:48:24 11° 252° (WSW) 1,835 ? -9.3°
